Flag for USA

Past Weather in Yonkers, New York, USA — Yesterday and Last 2 Weeks

Now
78 °F

Mostly cloudy.


Feels Like: 80 °F
Forecast: 82 / 74 °F
Wind: 6 mph from East

Location: Teterboro Airport

Current Time: Jul 7, 2020 at 10:21:52 pm

Latest Report: Jul 7, 2020 at 9:51 pm


Visibility: 10 mi

Pressure: 30.03 "Hg

Humidity: 79%

Dew Point: 71 °F

Location of YonkersLocation

Past Weather in Yonkers — Graph

°F

Yonkers Temperature Yesterday

Maximum temperature yesterday: 94 °F (at 1:51 pm)
Minimum temperature yesterday: 69 °F (at 4:58 pm)
Average temperature yesterday: 79 °F

High & Low Weather Summary for the Past Weeks

 TemperatureHumidityPressure
High94 °F (Jul 6, 1:51 pm)97% (Jun 28, 6:51 am)30.11 "Hg (Jun 28, 6:51 am)
Low65 °F (Jun 27, 5:51 am)25% (Jul 5, 2:51 pm)29.61 "Hg (Jun 24, 2:51 am)
Average77 °F67%29.86 "Hg
* Reported Jun 22 8:51 pm — Jul 7 8:51 pm, Yonkers. Weather by CustomWeather, © 2020

Note: Actual official high and low records may vary slightly from our data, if they occured in-between our weather recording intervals... More about our weather records

Yonkers Weather History for the Previous 24 Hours

Scroll right to see more
 ConditionsComfort  
Time TempWeatherWind HumidityBarometerVisibility
8:51 pm
Tue, Jul 7
77 °FPassing clouds.6 mph79%30.03 "Hg10 mi
7:51 pm78 °FCloudy.9 mph76%30.03 "Hg10 mi
6:51 pm80 °FMostly cloudy.8 mph71%30.03 "Hg10 mi
5:51 pm79 °FMostly cloudy.9 mph74%30.03 "Hg10 mi
4:51 pm81 °FBroken clouds.10 mph69%30.04 "Hg10 mi
4:02 pm80 °FOvercast.10 mph69%30.06 "Hg10 mi
3:51 pm80 °FMostly cloudy.12 mph69%30.06 "Hg10 mi
2:51 pm80 °FMostly cloudy.9 mph67%30.07 "Hg10 mi
1:51 pm79 °FMostly cloudy.9 mph69%30.08 "Hg10 mi
12:51 pm80 °FOvercast.9 mph69%30.09 "Hg10 mi
11:51 am78 °FPartly sunny.8 mph74%30.09 "Hg10 mi
10:58 am76 °FPartly sunny.10 mph77%30.09 "Hg10 mi
9:51 am75 °FMostly cloudy.8 mph79%30.10 "Hg10 mi
9:12 am76 °FPartly sunny.7 mph77%30.09 "Hg10 mi
8:51 am75 °FPassing clouds.8 mph79%30.09 "Hg10 mi
7:51 am73 °FPartly sunny.7 mph84%30.10 "Hg10 mi
7:09 am72 °FPartly sunny.5 mph87%30.10 "Hg10 mi
6:51 am72 °FOvercast.5 mph84%30.10 "Hg10 mi
5:51 am71 °FFog.3 mph87%30.10 "Hg5 mi
4:51 am71 °FMostly cloudy.5 mph87%30.09 "Hg10 mi
4:20 am71 °FPassing clouds.3 mph84%30.09 "Hg10 mi
3:51 am71 °FPassing clouds.6 mph84%30.08 "Hg10 mi
3:32 am71 °FPassing clouds.6 mph84%30.08 "Hg10 mi
2:51 am72 °FPassing clouds.6 mph81%30.09 "Hg10 mi
1:51 am72 °FMostly cloudy.5 mph84%30.10 "Hg10 mi
12:51 am72 °FOvercast.3 mph84%30.11 "Hg10 mi
11:51 pm
Mon, Jul 6
72 °FPassing clouds.7 mph84%30.10 "Hg10 mi
10:51 pm73 °FPassing clouds.9 mph84%30.09 "Hg10 mi
Weather by CustomWeather, © 2020

See weather overview